sat.trackr.live / text

‹ back to catalog

BEIDOU-3 M19 (C41)

NORAD 44864 · 2019-090A

PAYLOAD ACTIVE UNKNOWN

§ Identity

Operator
Country
PRC
Launch date
2019-12-16
Launch site
XICLF
Launch vehicle
Mass (kg)
RCS (m²)

Purposes: nav

External: N2YO · Heavens-Above · Gunter

§ Orbital elements

Epoch: 2026-09-11T09:03:23.953248Z

Period
773.23 min
Inclination
56.6386°
Eccentricity
0.0015767
Mean motion
1.86231354 rev/d
Perigee alt
21,484.0 km
Apogee alt
21,572.0 km
Semi-major
27,906.2 km
B*
0.0000e+0
RAAN
59.9456°
Arg perigee
292.8904°
Mean anomaly
67.0484°
Rev number
4,583

§ Raw data

BEIDOU-3 M19 (C41)1 44864U 19090A   26254.37736057 -.00000034  00000+0  00000+0 0  99982 44864  56.6386  59.9456 0015767 292.8904  67.0484  1.86231354 45832

JSON: /api/v1/satellites/44864 · /tle

For live sub-satellite position, see the globe view (requires WebGL).

§ Visibility from observer

Set your observer location to see the next 7 days of passes ≥ 10°. The values pass through the URL so the page stays shareable.

No JS? Fill the form by hand. The geolocation button needs JavaScript.